This is the latest recevied weather packets stored in our database for station/object R2AKT-13. If no packets are shown the sender has not sent any weather packets the latest 10 day(s).
| Time | Temp. | Humidity | Pressure | Rain* | Wind** | Luminosity | Snow |
|---|---|---|---|---|---|---|---|
| 1787925106 | 18.89° C | 45% | 1002 hPa | - | 1.34 m/s, 209° | - | - |
| 1787924621 | 18.89° C | 45% | 1002 hPa | - | 0.45 m/s, 229° | - | - |
| 1787924091 | 18.89° C | 45% | 1002.1 hPa | - | 0.45 m/s, 216° | - | - |
| 1787923501 | 19.44° C | 43% | 1002 hPa | - | 0.45 m/s, 205° | - | - |
| 1787922976 | 18.89° C | 44% | 1002 hPa | - | 0.89 m/s, 222° | - | - |
| 1787922416 | 19.44° C | 42% | 1001.9 hPa | - | 0.89 m/s, 258° | - | - |
| 1787921901 | 19.44° C | 41% | 1001.9 hPa | - | 0.89 m/s, 119° | - | - |
| 1787921401 | 20° C | 39% | 1001.8 hPa | - | 1.79 m/s, 249° | - | - |
| 1787920881 | 20° C | 41% | 1001.9 hPa | - | 0 m/s | - | - |
| 1787920356 | 20° C | 42% | 1001.9 hPa | - | 0.45 m/s, 210° | - | - |
| 1787919761 | 20° C | 41% | 1001.9 hPa | - | 0.89 m/s, 222° | - | - |
| 1787919266 | 20° C | 41% | 1001.9 hPa | - | 1.34 m/s, 199° | - | - |
| 1787918701 | 19.44° C | 39% | 1002 hPa | - | 0 m/s | - | - |
| 1787918126 | 18.89° C | 42% | 1002.1 hPa | - | 1.79 m/s, 132° | - | - |
| 1787917621 | 18.89° C | 43% | 1002 hPa | - | 0.89 m/s, 204° | - | - |
| 1787917116 | 18.33° C | 45% | 1002.1 hPa | - | 1.79 m/s, 295° | - | - |
| 1787916576 | 18.89° C | 42% | 1002.1 hPa | - | 1.34 m/s, 230° | - | - |
| 1787916051 | 19.44° C | 43% | 1002.1 hPa | - | 0.89 m/s, 229° | - | - |
| 1787915531 | 18.89° C | 44% | 1002.2 hPa | - | 1.79 m/s, 267° | - | - |
| 1787914981 | 18.89° C | 44% | 1002.2 hPa | - | 0.89 m/s, 143° | - | - |
| 1787914476 | 19.44° C | 45% | 1002.2 hPa | - | 1.34 m/s, 208° | - | - |
| 1787913911 | 18.33° C | 48% | 1002.3 hPa | - | 0.89 m/s, 147° | - | - |
| 1787913316 | 18.89° C | 45% | 1002.3 hPa | - | 0.89 m/s, 189° | - | - |
| 1787912736 | 18.89° C | 44% | 1002.3 hPa | - | 2.24 m/s, 304° | - | - |
| 1787912181 | 19.44° C | 47% | 1002.4 hPa | - | 0.89 m/s, 124° | - | - |
* Rain since midnight (hover to see other rain measurements)
** Current wind speed in m/s (hover to see current wind gust speed)